Location: Lecco
(45.8566°N, 9.3977°E)
Time: 05:19:12
(UTC+02:00)

OTV 5 (USA 277) - Pass Details

Date: 20 June 2019
Orbit: 299 x 335 km, 54.5° (Epoch: 13 July)

Event Time Altitude Azimuth Distance (km) Brightness Sun altitude
Exits shadow 23:41:36 66° 199° (SSW) 369 ? -16.9°
Maximum altitude 23:41:53 76° 143° (SE) 349 ? -16.9°
Drops below altitude 10° 23:44:42 10° 58° (ENE) 1,269 ? -17.1°
Enters shadow 00:58:16 -32° 252° (WSW) 7,416 ? -20.5°
